Weather History for Billings, MT

Change the Weather History Date:

Monday, March 18, 2013

  Actual Average Record
Temperature  
Mean Temperature 28 °F 38 °F  
Max Temperature 43 °F 49 °F 71 °F (2004)
Min Temperature 12 °F 27 °F -9 °F (1965)
Degree Days  
Heating Degree Days 37 27  
Month to date heating degree days 488 522  
Since 1 July heating degree days 5049 5487  
Cooling Degree Days 0 0  
Month to date cooling degree days 0 0  
Year to date cooling degree days 0 0  
Moisture  
Dew Point 10 °F    
Average Humidity 50    
Maximum Humidity 80    
Minimum Humidity 19    
Precipitation  
Precipitation T in 0.04 in 0.40 in (1968)
Month to date precipitation 0.17 0.53  
Year to date precipitation 1.05 1.49  
Snow  
Snow T in 0.30 in 4.30 in (1968)
Month to date snowfall 1.7 5.8  
Since 1 July snowfall 33.8 40.3  
Snow Depth 0.00 in    
Sea Level Pressure  
Sea Level Pressure 29.97 in    
Wind  
Wind Speed 11 mph (WNW)    
Max Wind Speed 38 mph    
Max Gust Speed 50 mph    
Visibility 10 miles    
Events      
T = Trace of Precipitation, MM = Missing Value Source: NWS Daily Summary

Daily Weather History Graph

Daily Weather History Graph

Search for Another Location

Airport:

Trip Planner

Search our weather history database for the weather conditions in past years. The results will help you decide how hot, cold, wet, or windy it might be!

Date:

Astronomy

Mar. 18, 2013 Rise Set
Actual Time 7:20 AM MDT 7:24 PM MDT
Civil Twilight 6:50 AM MDT 7:54 PM MDT
Nautical Twilight 6:16 AM MDT 8:29 PM MDT
Astronomical Twilight 5:40 AM MDT 9:04 PM MDT
Moon 11:04 AM MDT (3/18) 1:43 AM MDT (3/18)
Length of Visible Light 13h 03m
Length of Day
12h 04m
Waxing Crescent, 41% of the Moon is Illuminated
Mar 18
Waxing Crescent
Mar 19
First Quarter
Mar 27
Full
Apr 2
Last Quarter
Apr 10
New

Hourly Weather History & Observations

Time (MDT) Temp. Windchill Dew Point Humidity Pressure Visibility Wind Dir Wind Speed Gust Speed Precip Events Conditions
12:53 AM 18.0 °F 9.8 °F 7.0 °F 62% 30.00 in 10.0 mi NNW 5.8 mph - N/A   Scattered Clouds
1:53 AM 19.0 °F 9.0 °F 7.0 °F 59% 30.00 in 10.0 mi NW 8.1 mph - N/A   Mostly Cloudy
2:53 AM 19.0 °F 10.0 °F 8.1 °F 62% 30.01 in 10.0 mi NNE 6.9 mph - N/A   Overcast
3:53 AM 18.0 °F 12.7 °F 10.0 °F 71% 30.01 in 10.0 mi NNE 3.5 mph - N/A   Overcast
4:53 AM 16.0 °F 8.8 °F 10.0 °F 77% 30.02 in 10.0 mi North 4.6 mph - N/A   Mostly Cloudy
5:53 AM 15.1 °F 7.7 °F 8.1 °F 74% 30.03 in 10.0 mi NW 4.6 mph - N/A   Mostly Cloudy
6:53 AM 14.0 °F 8.2 °F 8.1 °F 77% 30.03 in 10.0 mi NNW 3.5 mph - N/A   Scattered Clouds
7:53 AM 17.1 °F 11.7 °F 10.9 °F 77% 30.05 in 10.0 mi South 3.5 mph - N/A   Mostly Cloudy
8:53 AM 18.0 °F 7.7 °F 12.0 °F 78% 30.04 in 10.0 mi SSW 8.1 mph - N/A   Mostly Cloudy
9:53 AM 21.9 °F 11.7 °F 12.0 °F 66% 30.02 in 10.0 mi SSW 9.2 mph - N/A   Overcast
10:53 AM 28.0 °F 18.1 °F 12.9 °F 53% 29.98 in 10.0 mi SW 11.5 mph - N/A   Mostly Cloudy
11:53 AM 39.0 °F 28.8 °F 10.9 °F 32% 29.92 in 10.0 mi West 21.9 mph 31.1 mph N/A   Scattered Clouds
12:04 PM 41.0 °F 29.8 °F 6.1 °F 24% 29.83 in 10.0 mi West 29.9 mph 41.4 mph N/A   Scattered Clouds
12:53 PM 42.1 °F 31.9 °F 7.0 °F 24% 29.90 in 10.0 mi West 26.5 mph 35.7 mph N/A   Mostly Cloudy
1:53 PM 43.0 °F 33.3 °F 6.1 °F 22% 29.88 in 10.0 mi WNW 25.3 mph 38.0 mph 0.00 in   Mostly Cloudy
2:53 PM 41.0 °F 30.9 °F 5.0 °F 23% 29.88 in 10.0 mi WNW 24.2 mph 28.8 mph N/A   Mostly Cloudy
3:53 PM 42.1 °F 31.1 °F 3.9 °F 21% 29.87 in 10.0 mi WNW 31.1 mph 42.6 mph N/A   Scattered Clouds
4:53 PM 39.9 °F 30.2 °F 7.0 °F 26% 29.91 in 10.0 mi WNW 20.7 mph - N/A   Mostly Cloudy
5:53 PM 37.9 °F 29.6 °F 10.9 °F 33% 29.92 in 10.0 mi West 13.8 mph - N/A   Mostly Cloudy
6:48 PM 37.4 °F 29.8 °F 12.2 °F 36% 29.84 in 10.0 mi NNW 11.5 mph - N/A   Mostly Cloudy
6:53 PM 37.0 °F 28.5 °F 12.0 °F 36% 29.95 in 10.0 mi NNW 13.8 mph - N/A   Mostly Cloudy
7:53 PM 34.0 °F 27.2 °F 12.9 °F 42% 29.98 in 10.0 mi North 8.1 mph - N/A   Overcast
8:53 PM 32.0 °F 26.4 °F 15.1 °F 50% 30.01 in 10.0 mi NW 5.8 mph - N/A   Partly Cloudy
9:53 PM 28.0 °F 20.8 °F 14.0 °F 56% 30.03 in 10.0 mi NW 6.9 mph - N/A   Scattered Clouds
10:53 PM 28.0 °F 21.7 °F 14.0 °F 56% 30.03 in 10.0 mi North 5.8 mph - N/A   Scattered Clouds
11:53 PM 28.9 °F 22.8 °F 18.0 °F 64% 30.02 in 10.0 mi WSW 5.8 mph - N/A   Overcast